www.pogodaiklimat.ru

Погода и климат >> Архив погоды >> Россия >> Саратовская область >> Маркс


ПОГОДА в Маркс

  • Прогноз погоды в Маркс
  • Монитор погоды в Маркс

АРХИВ ПОГОДЫ в Маркс

Время (UTC), дата Ветер
(напр.,м/с)
 
Видим.   Явления Облачность Т
(С)
Тd
(С)
f
(%)
Тe
(С)
Тes
(С)
Комфортность P
(гПа)
Po
(гПа)
Тmin
(С)
Tmax
(С)
R
(мм)
R24
(мм)
S
(см)
15 15.09 СЗ 3
{10}
50 км 4/4 1000 м
[Sc]
+15.8 +4.0 45 +15 +15 1015.4 1011.6 +19.7 1
18 15.09 штиль 0
{10}
50 км ясно +10.1 +5.3 72 +10 +10 1016.2 1012.4
21 15.09 З 1 50 км 3/0
[Ci fib]
+8.6 +5.5 81 +8 +8 1016.0 1012.1
00 16.09 штиль 0 50 км 9/0
[Ci]
+7.2 +5.1 86 +6 +6 1015.3 1011.4
03 16.09 Ю 1 50 км 9/0
[Ac trans Ci fib]
+8.7 +5.8 82 +8 +8 1013.8 1009.9 +6.9
06 16.09 ЮЗ 4 50 км 10/0
[Ac trans Cs]
+15.1 +5.3 52 +14 +16 1011.5 1007.7
09 16.09 ЮЗ 6-11
{12}
50 км 9/3 1000 м
[Sc Ac cast Ci sp]
+19.7 +3.0 33 +20 +21 1008.9 1005.2
12 16.09 З 5-11
{13}
50 км 10/1 1000 м
[Sc Ac lent Ci]
+21.6 +2.3 28 +21 +22 комфорт 1005.9 1002.2
15 16.09 ЮЗ 2
{13}
50 км 10/3 1000 м
[Sc Ac und]
+20.8 +3.7 32 +22 +22 комфорт 1004.7 1001.0 +22.4
18 16.09 СЗ 2 20 км 9/0
[Ac und]
+18.4 +6.1 44 +19 +19 1005.5 1001.8
21 16.09 ЮЗ 1 20 км 4/0
[Ac trans]
+15.9 +7.2 56 +17 +17 1005.4 1001.6
00 17.09 ЮЗ 1 20 км 9/0
[Ac und]
+13.2 +8.2 72 +13 +13 1005.5 1001.7
03 17.09 ЮЗ 1 20 км 9/0
[Ac trans Ci fib]
+10.8 +7.4 80 +11 +11 1005.2 1001.4 +10.6
06 17.09 З 2 20 км 9/0
[Ac und]
+17.2 +8.8 58 +18 +19 1005.1 1001.4
09 17.09 З 3 20 км 10/0
[Ac und]
+19.5 +7.6 46 +21 +23 комфорт 1004.0 1000.3
12 17.09 ЮЗ 4 20 км 8/0
[Ac trans Ci fib]
+21.7 +6.3 37 +22 +24 комфорт 1002.6 998.9
15 17.09 ЮЗ 2 20 км 9/0
[Ac trans Ci fib]
+19.1 +6.1 43 +20 +20 1001.5 997.8 +21.7
18 17.09 Ю 2 20 км слаб. дождь 10/0 1500 м
[As op]
+15.9 +10.9 72 +16 +16 1002.5 998.7
21 17.09 З 1 20 км {дождь} 9/9 1000 м
[Sc]
+15.0 +10.6 75 +16 +16 1002.5 998.7
00 18.09 СЗ 1 20 км {дождь} ясно +12.1 +6.0 66 +12 +12 1003.8 1000.0
03 18.09 З 1 20 км ясно +8.4 +6.0 85 +8 +8 1005.0 1001.2 +8.2 0.0
06 18.09 ЮЗ 2 50 км 8/0
[Ac cast Ci fib]
+14.6 +4.7 51 +14 +18 1005.6 1001.8
09 18.09 З 5 50 км 5/3 1000 м
[Cu hum Ac trans Ci fib]
+19.3 +2.7 33 +19 +22 1004.6 1000.9
12 18.09 ЮЗ 4
{11}
50 км 9/4 1000 м
[Sc Ci]
+20.1 +2.0 30 +20 +22 1002.8 999.1
15 18.09 ЮЗ 1 20 км 10/8 600 м
[Cb cap Ac und]
+16.8 +6.9 52 +18 +18 1001.0 997.3 +20.7
18 18.09 Ю 1 20 км {ливн. осадки} 10/0
[Ac und]
+13.3 +9.3 77 +14 +14 998.0 994.3
21 18.09 З 4 20 км в посл. час ливневой дождь 10/10 600 м
[Cb cap]
+12.4 +10.8 90 +10 +10 996.7 993.0
00 19.09 З 5-12
{16}
20 км {ливн. осадки} 3/0
[Ac trans]
+9.3 +4.6 72 +6 +6 998.4 994.6
03 19.09 З 5-10
{16}
50 км 10/10 870 м
[Sc]
+9.5 +5.1 74 +6 +6 999.5 995.7 +9.3 3
06 19.09 З 4
{12}
20 км {ливн. осадки} 10/10 720 м
[Cb cap]
+9.7 +6.6 81 +7 +7 1003.0 999.2 +8.5
09 19.09 З 5-10
{12}
50 км 8/8 600 м
[Cu med, cong]
+13.9 +6.8 62 +12 +13 1008.2 1004.5
12 19.09 З 3
{12}
20 км сильн. ливневой дождь 8/8 600 м
[Cb cap]
+13.7 +8.1 69 +13 +13 1011.1 1007.3
15 19.09 З 2 20 км 10/10 600 м
[Cb cap]
+13.5 +5.9 60 +13 +13 1012.8 1009.0 +15.4 0.5
18 19.09 З 2 50 км ясно +10.5 +6.4 76 +9 +9 1014.5 1010.6
21 19.09 З 2 50 км 6/0
[Ac trans]
+10.3 +6.5 77 +9 +9 1014.8 1011.0
00 20.09 ЮЗ 1 50 км 9/0
[Ac trans]
+7.1 +5.7 91 +6 +6 1015.6 1011.7
03 20.09 штиль 0 50 км 1/0
[Ac trans]
+5.0 +3.8 92 +4 +4 1016.1 1012.2 +5.0
06 20.09 З 1 50 км 5/0
[Ac trans]
+10.8 +7.3 79 +11 +15 1016.6 1012.8 +5.0
09 20.09 З 2 50 км 9/8 600 м
[Cu Sc Ac cast]
+14.0 +5.6 57 +14 +15 1015.5 1011.7
12 20.09 З 2 50 км 9/4 600 м
[Cu Sc Ac cast Cc]
+16.3 +3.5 42 +17 +18 1014.3 1010.5
15 20.09 ЮЗ 1 50 км 10/3 600 м
[Sc diur, vesp Ac lent Ci]
+12.3 +5.2 62 +13 +13 1013.8 1010.0 +16.5
18 20.09 ЮЗ 1 20 км 3/0
[Ci fib]
+9.5 +5.5 76 +9 +9 1014.3 1010.4
21 20.09 штиль 0 20 км 9/0
[Ac und]
+8.0 +5.2 82 +7 +7 1013.2 1009.4
00 21.09 Ю 1 10 км слаб. ливневой дождь 10/10 700 м
[Cb cap]
+9.2 +6.3 82 +9 +9 1012.5 1008.6
03 21.09 штиль 0 20 км {ливн. осадки} 9/0
[Ac trans Ci fib]
+7.6 +6.1 90 +7 +7 1011.9 1008.0 +7.6 1
06 21.09 СЗ 2 50 км {ливн. осадки} 8/0
[Ac trans]
+10.2 +6.3 77 +9 +11 1011.5 1007.7 +7.6
09 21.09 СЗ 2 50 км 6/3 1000 м
[Cu med, cong Ac trans Ci fib]
+14.7 +4.7 51 +15 +19 1010.3 1006.6
12 21.09 С 2 50 км 8/4 600 м
[Cb cap Ac trans Ci fib]
+15.2 +3.7 46 +15 +17 1009.5 1005.7
15 21.09 С 1 50 км {ливн. осадки} 3/3 600 м
[Cb cap]
+9.9 +5.5 74 +10 +10 1009.8 1006.0 +15.8 0.3
18 21.09 ЮЗ 1 20 км {ливн. осадки} 8/0
[Ac trans]
+6.4 +5.6 95 +5 +5 1010.1 1006.2
21 21.09 СЗ 3 20 км 1/0
[Ac trans]
+7.3 +5.1 86 +4 +4 1009.5 1005.6
00 22.09 СЗ 2 20 км 3/1 300 м
[Sc Ci fib]
+5.8 +4.0 88 +3 +3 1009.2 1005.3
03 22.09 З 1 20 км 3/1 600 м
[Sc Ac trans]
+3.6 +2.2 91 +2 +2 1009.2 1005.3 +3.6
06 22.09 ЮЗ 2 50 км 3/0
[Ac trans]
+8.1 +4.3 77 +6 +10 1008.2 1004.4
09 22.09 ЮЗ 6-12
{12}
50 км 9/8 600 м
[Cb cap Ac trans]
+11.4 +0.9 48 +9 +9 1004.5 1000.7
12 22.09 ЮЗ 4
{13}
10 км слаб. ливневой дождь 10/10 450 м
[Cb cap]
+6.6 +5.4 92 +3 +3 1001.5 997.6

 

Местоположение метеостанции Маркс (Саратовская область, Россия): широта 51.70 долгота 46.73 высота над уровнем моря 29 м.

В архиве по умолчанию представлена погода в Маркс за последнюю неделю. Архивные данные за месяц целиком и за предыдущие месяцы, начиная с января 2011 года, Вы можете получить, выбрав интересующий диапазон дат из раскрывающегося списка и нажав кнопку "Ввод!".


*Определитесь, кто Вы:
робот инопланетянин человек

Внимание! Время в таблицах - всемирное. Для получения местного времени необходимо прибавить поправку, которая равна 4 ч.

Смотрите также архив погоды в соседних городах и на ближайших метеорологических станциях:

Погода в Саратове (Саратовская область, Россия) (50 км)
Погода в Саратове ЮВ (Саратовская область, Россия) (52 км)
Погода в Карабулаке (Саратовская область, Россия) (74 км)
Погода в Балаково (Саратовская область, Россия) (83 км)
Погода в Красном Куте (Саратовская область, Россия) (85 км)
Погода в Октябрьском Городке (Саратовская область, Россия) (89 км)
Погода в Петровске (Саратовская область, Россия) (112 км)
Погода в Ершове (Саратовская область, Россия) (115 км)
Погода в Сплавнухе (Саратовская область, Россия) (117 км)
Погода в Аткарске (Саратовская область, Россия) (118 км)

Пояснения к столбцам:

Ветер - указаны скорость ветра в м/с - средняя за 10 мин, порывы в срок и между сроками (в фигурных скобках) и направление, откуда дует ветер: С - северный, СВ - северо-восточный, В - восточный, ЮВ - юго-восточный, Ю - южный, ЮЗ - юго-западный, З - западный, СЗ - северо-западный.
Видимость - горизонтальная дальность видимости в метрах или километрах. При видимости от 1 до 10 км при отсутствии осадков обычно наблюдается дымка, при ухудшении видимости до 1 км и менее - туман. В сухую погоду видимость может ухудшаться дымом, пылью или мглою.
Явления - указаны атмосферные явления, наблюдавшиеся в срок или в последний час перед сроком; фигурными скобками обозначены явления, наблюдавшиеся между сроками (за 1-3 часа до срока); квадратными скобками обозначены град или гололедные отложения с указанием их диаметра в мм.
Облачность - указаны через наклонную черту общая и нижняя облачность в баллах и высота нижней границы облаков в метрах; квадратными скобками обозначены формы облаков: Ci - перистые, Cs - перисто-слоистые, Cc - перисто-кучевые, Ac - высококучевые, As - высокослоистые, Sc - слоисто-кучевые, Ns - слоисто-дождевые, Cu - кучевые, Cb - кучево-дождевые. Подробнее классификацию облаков см. в Атласе облаков (PDF).
T - Температура воздуха - температура, измеренная на высоте 2 м над землей.
Td - Температура точки росы - температура, при понижении до которой содержащийся в воздухе водяной пар достигнет насыщения.
f - Относительная влажность воздуха - влажноcть воздуха, измеренная на высоте 2 м над землей.
Te - Эффективная температура - температура, которую ощущает одетый по сезону человек в тени. Характеристика душности погоды. При расчете учитывается влияние влажности воздуха и скорости ветра на теплоощущения человека.
Tes - Эффективная температура на солнце - температура, которую ощущает человек, с поправкой на солнечный нагрев. Характеристика знойности погоды. Зависит от высоты солнца над горизонтом, облачности и скорости ветра. Ночью, в пасмурную погоду, а также при ветре 12 м/с и более поправка равна нулю.
P - Атмосферное давление - приведенное к уровню моря атмосферное давление.
Po - Атмосферное давление - измеренное на уровне метеостанции атмосферное давление.
Tmin - Минимальная температура - минимум температуры воздуха на высоте 2 м над землей.
Tmax - Максимальная температура - максимум температуры воздуха на высоте 2 м над землей.
R - Количество осадков - Количество выпавших осадков за период времени, мм. При наведении курсора мыши на число - период времени, за который выпало указанное количество осадков.
R24 - Количество осадков - Количество выпавших осадков за 24 часа, мм.
S - Снежный покров - Высота снежного покрова, см. При наведении курсора мыши на число - состояние снежного покрова и степень покрытия местности в баллах.